| time (UTC) | temp F | wind direction | speed knots | gust knots | rain 1hr in | rain 24hr in | rain mn in | humidity % | barometer mb |
| 20260506094607 | 48 | 22 | 7.8 | 13.9 | 0.00 | 0.00 | 0.00 | 74 | 1014.9 |
| 20260506094107 | 49 | 28 | 8.7 | 13.0 | 0.00 | 0.00 | 0.00 | 71 | 1014.8 |
| 20260506093606 | 49 | 27 | 6.1 | 14.8 | 0.00 | 0.00 | 0.00 | 71 | 1014.9 |
| 20260506093106 | 50 | 51 | 7.8 | 14.8 | 0.00 | 0.00 | 0.00 | 71 | 1014.8 |
| 20260506091606 | 51 | 27 | 6.1 | 13.0 | 0.00 | 0.00 | 0.00 | 66 | 1014.6 |
| 20260506091106 | 51 | 55 | 7.8 | 13.0 | 0.00 | 0.00 | 0.00 | 68 | 1014.6 |
| 20260506090606 | 51 | 40 | 6.1 | 14.8 | 0.00 | 0.00 | 0.00 | 70 | 1014.6 |
| 20260506090107 | 50 | 21 | 8.7 | 14.8 | 0.00 | 0.00 | 0.00 | 70 | 1014.6 |
| 20260506084606 | 51 | 41 | 7.0 | 13.0 | 0.00 | 0.00 | 0.00 | 67 | 1014.5 |
| 20260506084106 | 51 | 37 | 7.0 | 13.0 | 0.00 | 0.00 | 0.00 | 67 | 1014.4 |
| 20260506083606 | 51 | 55 | 5.2 | 14.8 | 0.00 | 0.00 | 0.00 | 67 | 1014.4 |
| 20260506083108 | 50 | 77 | 7.8 | 14.8 | 0.00 | 0.00 | 0.00 | 66 | 1014.4 |
| 20260506081606 | 49 | 38 | 6.1 | 12.2 | 0.00 | 0.00 | 0.00 | 69 | 1014.5 |
| 20260506081107 | 49 | 69 | 4.3 | 12.2 | 0.00 | 0.00 | 0.00 | 70 | 1014.5 |
| 20260506080107 | 50 | 59 | 7.0 | 13.9 | 0.00 | 0.00 | 0.00 | 68 | 1014.5 |
| 20260506073107 | 49 | 41 | 4.3 | 13.0 | 0.00 | 0.00 | 0.00 | 71 | 1014.3 |
| 20260506071606 | 47 | 36 | 5.2 | 12.2 | 0.00 | 0.00 | 0.00 | 77 | 1014.2 |
| 20260506070607 | 46 | 18 | 5.2 | 10.4 | 0.00 | 0.00 | 0.00 | 82 | 1014.2 |
| 20260506070106 | 46 | 349 | 2.6 | 7.0 | 0.00 | 0.00 | 0.00 | 82 | 1014.2 |
| 20260506061606 | 46 | 333 | 2.6 | 7.8 | 0.00 | 0.00 | 0.00 | 82 | 1013.9 |
| 20260506061106 | 45 | 3 | 4.3 | 7.8 | 0.00 | 0.00 | 0.00 | 82 | 1013.9 |
| 20260506060606 | 45 | 2 | 3.5 | 7.8 | 0.00 | 0.00 | 0.00 | 83 | 1013.9 |
| 20260506051106 | 44 | 353 | 2.6 | 7.0 | 0.00 | 0.00 | 0.00 | 85 | 1013.8 |
| 20260506050106 | 43 | 349 | 4.3 | 8.7 | 0.00 | 0.00 | 0.00 | 85 | 1013.8 |
| 20260506044607 | 43 | 337 | 4.3 | 8.7 | 0.00 | 0.00 | 0.00 | 85 | 1013.8 |
| 20260506044106 | 43 | 343 | 5.2 | 7.8 | 0.00 | 0.00 | 0.00 | 85 | 1013.7 |
| 20260506043608 | 43 | 348 | 4.3 | 7.8 | 0.00 | 0.00 | 0.00 | 85 | 1013.7 |
| 20260506043106 | 43 | 354 | 4.3 | 7.8 | 0.00 | 0.00 | 0.00 | 85 | 1013.7 |
| 20260506041107 | 43 | 346 | 4.3 | 7.0 | 0.00 | 0.00 | 0.00 | 86 | 1013.8 |
| 20260506040607 | 43 | 353 | 2.6 | 7.0 | 0.00 | 0.00 | 0.00 | 86 | 1013.8 |
| 20260506034606 | 42 | 333 | 0.9 | 4.3 | 0.00 | 0.00 | 0.00 | 87 | 1013.9 |
| 20260506034106 | 42 | 340 | 2.6 | 5.2 | 0.00 | 0.00 | 0.00 | 87 | 1013.8 |
| 20260506033606 | 42 | 332 | 1.7 | 5.2 | 0.00 | 0.00 | 0.00 | 87 | 1013.9 |
| 20260506033106 | 42 | 329 | 1.7 | 5.2 | 0.00 | 0.00 | 0.00 | 86 | 1013.9 |
| 20260506031606 | 42 | 347 | 2.6 | 7.8 | 0.00 | 0.00 | 0.00 | 86 | 1014.0 |
| 20260506031106 | 42 | 1 | 3.5 | 7.8 | 0.00 | 0.00 | 0.00 | 85 | 1013.9 |
| 20260506030606 | 42 | 351 | 4.3 | 7.8 | 0.00 | 0.00 | 0.00 | 85 | 1013.8 |
| 20260506030106 | 42 | 342 | 5.2 | 7.8 | 0.00 | 0.00 | 0.00 | 85 | 1013.8 |
| 20260506024607 | 42 | 335 | 3.5 | 8.7 | 0.00 | 0.00 | 0.00 | 85 | 1013.8 |
| 20260506023607 | 42 | 330 | 2.6 | 7.0 | 0.00 | 0.00 | 0.00 | 85 | 1013.9 |
| 20260506023107 | 42 | 334 | 3.5 | 7.0 | 0.00 | 0.00 | 0.00 | 85 | 1013.9 |
| 20260506021606 | 42 | 340 | 2.6 | 7.0 | 0.00 | 0.00 | 0.00 | 85 | 1014.1 |
| 20260506020107 | 42 | 310 | 2.6 | 6.1 | 0.00 | 0.00 | 0.00 | 86 | 1014.1 |
| 20260506014106 | 42 | 325 | 1.7 | 7.0 | 0.00 | 0.00 | 0.00 | 86 | 1014.1 |
| 20260506013106 | 42 | 318 | 2.6 | 7.0 | 0.00 | 0.00 | 0.00 | 87 | 1014.1 |
| 20260506011605 | 42 | 318 | 0.9 | 6.1 | 0.00 | 0.00 | 0.00 | 87 | 1014.1 |
| 20260506011106 | 42 | 305 | 2.6 | 6.1 | 0.00 | 0.00 | 0.00 | 87 | 1014.2 |
| 20260506010606 | 42 | 288 | 1.7 | 6.1 | 0.00 | 0.00 | 0.00 | 86 | 1014.1 |
| 20260506010107 | 42 | 328 | 1.7 | 4.3 | 0.00 | 0.00 | 0.00 | 87 | 1014.1 |
| 20260506004606 | 42 | 322 | 2.6 | 7.8 | 0.00 | 0.00 | 0.00 | 86 | 1014.2 |
| 20260506003105 | 43 | 309 | 1.7 | 4.3 | 0.00 | 0.00 | 0.00 | 86 | 1014.3 |
| 20260506001606 | 43 | 296 | 1.7 | 5.2 | 0.00 | 0.00 | 0.00 | 86 | 1014.4 |
| 20260506000607 | 43 | 314 | 2.6 | 5.2 | 0.00 | 0.00 | 0.00 | 86 | 1014.3 |
| 20260506000106 | 43 | 332 | 2.6 | 5.2 | 0.00 | 0.00 | 0.00 | 86 | 1014.3 |
| 20260505234606 | 43 | 334 | 3.5 | 7.0 | 0.00 | 0.00 | 0.00 | 85 | 1014.4 |
| 20260505234106 | 44 | 328 | 1.7 | 5.2 | 0.00 | 0.00 | 0.00 | 85 | 1014.5 |
| 20260505233606 | 44 | 336 | 2.6 | 6.1 | 0.00 | 0.00 | 0.00 | 85 | 1014.5 |
| 20260505233106 | 44 | 323 | 1.7 | 6.1 | 0.00 | 0.00 | 0.00 | 85 | 1014.5 |
| 20260505231607 | 44 | 343 | 2.6 | 7.0 | 0.00 | 0.00 | 0.00 | 85 | 1014.6 |
| 20260505231106 | 44 | 342 | 2.6 | 7.0 | 0.00 | 0.00 | 0.00 | 84 | 1014.5 |
| 20260505230606 | 44 | 338 | 4.3 | 7.0 | 0.00 | 0.00 | 0.00 | 84 | 1014.5 |
| 20260505230106 | 44 | 333 | 4.3 | 7.8 | 0.00 | 0.00 | 0.00 | 84 | 1014.5 |
| 20260505223607 | 45 | 350 | 4.3 | 7.8 | 0.00 | 0.00 | 0.00 | 83 | 1014.6 |
| 20260505223106 | 45 | 355 | 4.3 | 7.8 | 0.00 | 0.00 | 0.00 | 83 | 1014.6 |
| 20260505221606 | 45 | 357 | 5.2 | 8.7 | 0.00 | 0.00 | 0.00 | 83 | 1014.7 |
| 20260505221106 | 45 | 357 | 5.2 | 8.7 | 0.00 | 0.00 | 0.00 | 82 | 1014.7 |
| 20260505220606 | 45 | 358 | 5.2 | 8.7 | 0.00 | 0.00 | 0.00 | 82 | 1014.8 |
| 20260505220106 | 45 | 353 | 3.5 | 10.4 | 0.00 | 0.00 | 0.00 | 82 | 1014.8 |
| 20260505214606 | 46 | 3 | 7.0 | 10.4 | 0.00 | 0.00 | 0.00 | 81 | 1014.7 |
| 20260505214107 | 46 | 354 | 5.2 | 10.4 | 0.00 | 0.00 | 0.00 | 81 | 1014.7 |
| 20260505213606 | 46 | 350 | 6.1 | 11.3 | 0.00 | 0.00 | 0.00 | 80 | 1014.7 |
| 20260505213106 | 46 | 0 | 7.0 | 11.3 | 0.00 | 0.00 | 0.00 | 80 | 1014.7 |
| 20260505211606 | 47 | 348 | 6.1 | 11.3 | 0.00 | 0.00 | 0.00 | 79 | 1014.6 |
| 20260505211107 | 47 | 350 | 6.1 | 11.3 | 0.00 | 0.00 | 0.00 | 79 | 1014.7 |
| 20260505210606 | 47 | 353 | 6.1 | 13.0 | 0.00 | 0.00 | 0.00 | 78 | 1014.6 |
| 20260505204607 | 47 | 4 | 6.1 | 13.0 | 0.00 | 0.00 | 0.00 | 77 | 1014.6 |
| 20260505204106 | 47 | 354 | 8.7 | 13.0 | 0.00 | 0.00 | 0.00 | 77 | 1014.5 |
| 20260505203106 | 48 | 357 | 6.1 | 13.0 | 0.00 | 0.00 | 0.00 | 76 | 1014.5 |
| 20260505201606 | 48 | 348 | 7.0 | 13.9 | 0.00 | 0.00 | 0.00 | 75 | 1014.4 |
| 20260505201106 | 48 | 3 | 9.6 | 17.4 | 0.00 | 0.00 | 0.00 | 75 | 1014.4 |
| 20260505200606 | 48 | 9 | 11.3 | 17.4 | 0.00 | 0.00 | 0.00 | 75 | 1014.4 |
| 20260505200106 | 48 | 6 | 9.6 | 15.6 | 0.00 | 0.00 | 0.00 | 75 | 1014.4 |
| 20260505194606 | 49 | 6 | 10.4 | 13.9 | 0.00 | 0.00 | 0.00 | 74 | 1014.3 |
| 20260505193606 | 49 | 343 | 8.7 | 14.8 | 0.00 | 0.00 | 0.00 | 74 | 1014.4 |
| 20260505193106 | 49 | 348 | 10.4 | 15.6 | 0.00 | 0.00 | 0.00 | 73 | 1014.3 |
| 20260505191105 | 49 | 4 | 6.1 | 17.4 | 0.00 | 0.00 | 0.00 | 74 | 1014.2 |
| 20260505190607 | 49 | 2 | 8.7 | 17.4 | 0.00 | 0.00 | 0.00 | 74 | 1014.2 |
| 20260505190107 | 50 | 0 | 8.7 | 17.4 | 0.00 | 0.00 | 0.00 | 74 | 1014.1 |
| 20260505184106 | 50 | 346 | 7.8 | 14.8 | 0.00 | 0.00 | 0.00 | 75 | 1014.0 |
| 20260505183606 | 50 | 347 | 6.1 | 14.8 | 0.00 | 0.00 | 0.00 | 75 | 1014.0 |
| 20260505183106 | 50 | 12 | 7.0 | 17.4 | 0.00 | 0.00 | 0.00 | 75 | 1014.0 |
| 20260505181606 | 51 | 358 | 7.8 | 17.4 | 0.00 | 0.00 | 0.00 | 74 | 1013.9 |
| 20260505181105 | 51 | 29 | 7.0 | 17.4 | 0.00 | 0.00 | 0.00 | 74 | 1013.8 |
| 20260505180606 | 51 | 8 | 9.6 | 17.4 | 0.00 | 0.00 | 0.00 | 73 | 1013.8 |
| 20260505180105 | 51 | 353 | 8.7 | 17.4 | 0.00 | 0.00 | 0.00 | 72 | 1013.9 |
| 20260505174106 | 52 | 9 | 8.7 | 13.9 | 0.00 | 0.00 | 0.00 | 72 | 1013.7 |
| 20260505173106 | 52 | 9 | 10.4 | 15.6 | 0.00 | 0.00 | 0.00 | 70 | 1013.7 |
| 20260505171606 | 52 | 7 | 6.1 | 10.4 | 0.00 | 0.00 | 0.00 | 68 | 1013.6 |
| 20260505171106 | 52 | 45 | 4.3 | 13.0 | 0.00 | 0.00 | 0.00 | 68 | 1013.7 |
| 20260505170107 | 52 | 350 | 3.5 | 10.4 | 0.00 | 0.00 | 0.00 | 69 | 1013.8 |
| 20260505164606 | 52 | 35 | 7.0 | 12.2 | 0.00 | 0.00 | 0.00 | 70 | 1013.8 |
| 20260505164105 | 52 | 21 | 6.1 | 12.2 | 0.00 | 0.00 | 0.00 | 69 | 1013.8 |
| 20260505163107 | 53 | 13 | 4.3 | 10.4 | 0.00 | 0.00 | 0.00 | 71 | 1013.7 |
| 20260505161606 | 53 | 17 | 4.3 | 12.2 | 0.00 | 0.00 | 0.00 | 73 | 1013.6 |
| 20260505161106 | 53 | 2 | 7.8 | 12.2 | 0.00 | 0.00 | 0.00 | 73 | 1013.5 |
| 20260505160606 | 53 | 7 | 7.0 | 13.0 | 0.00 | 0.00 | 0.00 | 73 | 1013.5 |
| 20260505160107 | 53 | 35 | 4.3 | 13.0 | 0.00 | 0.00 | 0.00 | 73 | 1013.5 |
| 20260505153106 | 53 | 10 | 7.0 | 17.4 | 0.00 | 0.00 | 0.00 | 73 | 1013.4 |
| 20260505151606 | 53 | 357 | 8.7 | 15.6 | 0.00 | 0.00 | 0.00 | 73 | 1013.5 |
| 20260505150605 | 54 | 14 | 5.2 | 12.2 | 0.00 | 0.00 | 0.00 | 74 | 1013.3 |
| 20260505150106 | 54 | 4 | 6.1 | 13.9 | 0.00 | 0.00 | 0.00 | 74 | 1013.3 |
| 20260505140106 | 55 | 353 | 8.7 | 13.0 | 0.00 | 0.00 | 0.00 | 72 | 1013.1 |
| 20260505130107 | 56 | 49 | 2.6 | 8.7 | 0.00 | 0.00 | 0.00 | 68 | 1012.7 |
| 20260505124105 | 56 | 50 | 5.2 | 10.4 | 0.00 | 0.00 | 0.00 | 67 | 1012.6 |
| 20260505123606 | 56 | 22 | 4.3 | 10.4 | 0.00 | 0.00 | 0.00 | 69 | 1012.6 |
| 20260505123107 | 57 | 8 | 5.2 | 13.0 | 0.00 | 0.00 | 0.00 | 69 | 1012.6 |
| 20260505121606 | 59 | 92 | 4.3 | 7.8 | 0.00 | 0.00 | 0.00 | 63 | 1012.5 |
| 20260505121106 | 60 | 0 | 3.5 | 7.8 | 0.00 | 0.00 | 0.00 | 61 | 1012.5 |
| 20260505120106 | 59 | 333 | 1.7 | 8.7 | 0.00 | 0.00 | 0.00 | 54 | 1012.6 |
| 20260505114606 | 61 | 27 | 2.6 | 7.0 | 0.00 | 0.00 | 0.00 | 56 | 1012.4 |
| 20260505111607 | 58 | 284 | 1.7 | 7.0 | 0.00 | 0.00 | 0.00 | 59 | 1012.6 |
| 20260505111106 | 58 | 4 | 5.2 | 7.0 | 0.00 | 0.00 | 0.00 | 57 | 1012.7 |
| 20260505110605 | 59 | 345 | 2.6 | 7.0 | 0.00 | 0.00 | 0.00 | 57 | 1012.7 |
| 20260505110106 | 59 | 281 | 2.6 | 7.8 | 0.00 | 0.00 | 0.00 | 57 | 1012.7 |
| 20260505101606 | 57 | 333 | 1.7 | 7.8 | 0.00 | 0.00 | 0.00 | 60 | 1012.8 |
| 20260505100605 | 57 | 288 | 2.6 | 7.8 | 0.00 | 0.00 | 0.00 | 60 | 1012.8 |